sat.trackr.live / text

‹ back to catalog

2024-205H

NORAD 61901 · 2024-205H

PAYLOAD ACTIVE UNKNOWN

§ Identity

Operator
Country
PRC
Launch date
2024-11-11
Launch site
JSC
Launch vehicle
Mass (kg)
RCS (m²)

External: N2YO · Heavens-Above · Gunter

§ Orbital elements

Epoch: 2026-05-25T05:09:00.863712Z

Period
94.05 min
Inclination
97.4110°
Eccentricity
0.0011486
Mean motion
15.31097720 rev/d
Perigee alt
464.7 km
Apogee alt
480.4 km
Semi-major
6,850.7 km
B*
4.5895e-4
RAAN
223.2343°
Arg perigee
118.2558°
Mean anomaly
241.9844°
Rev number
8,520

§ Raw data

2024-205H1 61901U 24205H   26145.21459333  .00013747  00000+0  45895-3 0  99932 61901  97.4110 223.2343 0011486 118.2558 241.9844 15.31097720 85202

JSON: /api/v1/satellites/61901 · /tle

For live sub-satellite position, see the globe view (requires WebGL).

§ Visibility from observer

Set your observer location to see the next 7 days of passes ≥ 10°. The values pass through the URL so the page stays shareable.

No JS? Fill the form by hand. The geolocation button needs JavaScript.